Regional Weather Roundup
Issued by NWS Huntsville, AL

Home | Current Version | Previous Version | Text Only | Print | Product List | Glossary On
Versions: 1 2 3 4 5 6 7 8 9 10 11 12 13 14 15 16 17 18 19 20 21 22 23 24 25 26 27
000
ASUS44 KHUN 280110
RWRHUN

WEATHER ROUNDUP FOR THE TENNESSEE VALLEY
NATIONAL WEATHER SERVICE HUNTSVILLE AL
800 PM CDT SAT AUG 27 2016

ALZ001>004-280200-
NORTHWEST ALABAMA

CITY           SKY/WX    TMP DP  RH WIND       PRES   REMARKS
COURTLAND HCN    N/A     82 N/A N/A NE3         N/A
RUSSELLVILLE     N/A     79 N/A N/A MISG        N/A
SHOALS AIRPORT CLEAR     80  74  81 CALM      30.04R
SHOALS TVA RES   N/A     81 N/A N/A MISG        N/A
$$

ALZ005>007-016-280200-
NORTH CENTRAL ALABAMA

CITY           SKY/WX    TMP DP  RH WIND       PRES   REMARKS
CULLMAN AG STN   N/A     82 N/A N/A CALM        N/A
DECATUR AP     CLEAR     82  74  76 NE8       30.05R
HUNTSVILLE AP  PTCLDY    81  66  60 NE12      30.05R
MERIDIANVILLE  LGT RAIN  72  68  88 CALM      30.07F
REDSTONE ARSN  CLEAR     76  68  74 N5        30.04S
VINEMONT AP    FAIR      79  73  81 CALM      30.08S
$$

ALZ008>010-280200-
NORTHEAST ALABAMA

CITY           SKY/WX    TMP DP  RH WIND       PRES   REMARKS
ALBERTVILLE    CLEAR     81  77  89 NE3       30.07R
FORT PAYNE     CLEAR     79  66  65 CALM      30.08R
SCOTTSBORO AP  CLEAR     82  72  69 NE3       30.07R
SCOTTSBORO HCN   N/A     79 N/A N/A MISG        N/A
VALLEY HEAD      N/A     77 N/A N/A MISG        N/A
$$

TNZ076-096-097-280200-
SOUTHEASTERN MIDDLE TENNESSEE

CITY           SKY/WX    TMP DP  RH WIND       PRES   REMARKS
TULLAHOMA      CLEAR     79  72  78 E7        30.11R
WINCHESTER     PTCLDY    77  73  88 CALM      30.10R
$$

...SURROUNDING SITES...

CITY           SKY/WX    TMP DP  RH WIND       PRES   REMARKS
ATLANTA        PTCLDY    86  68  54 E8        30.08R
ANNISTON       CLEAR     86  67  52 CALM      30.04R
BIRMINGHAM     CLEAR     88  67  49 CALM      30.05R HX  91
CHATTANOOGA    PTCLDY    83  71  67 N9        30.09R
DALTON         CLEAR     81  70  69 E3        30.09R
GADSDEN        CLEAR     83  72  69 E6        30.05R
GOLDEN TRNGL   CLEAR     90  66  45 CALM      29.98S HX  92
JACKSON TN     PTCLDY    79  76  90 CALM      30.03S
MEMPHIS        PTCLDY    88  70  55 E5        30.02R HX  93
NASHVILLE      CLOUDY    75  71  87 NE3       30.10R
OXFORD MS      FAIR      81  73  78 NE5       30.03S
ROME           CLEAR     84  71  65 NE3       30.06R
SAVANNAH       PTCLDY    77  75  94 CALM      30.04R
TUPELO         CLEAR     83  70  64 N7        30.00R
TUSCALOOSA     CLEAR     83  70  64 E3        29.99R
$$

...GULF COAST WEATHER...

CITY           SKY/WX    TMP DP  RH WIND       PRES   REMARKS
GULFPORT       PTCLDY    82  78  88 SE9       29.96R HX  91
PASCAGOULA     CLEAR     79  77  94 CALM      29.96R
MOBILE         PTCLDY    79  73  82 CALM      29.99R
GULF SHORES    MOCLDY    76  76 100 CALM      29.97R
PENSACOLA      CLOUDY    79  74  84 E3        29.96R
DESTIN         CLOUDY    84  78  82 CALM      29.97R HX  95
PANAMA CITY    PTCLDY    81  76  85 CALM      29.97R
APPALACHICOLA  PTCLDY    80  76  87 CALM      29.95S
$$





USA.gov is the U.S. government's official web portal to all federal, state and local government web resources and services.